Theta_e
303 304 304 303 303 303 303 304 304 303 303 301 298 300 292 291 286 298 301 304 300 292 285 288 286 286 287 289 288 290 288 287 289 287 289 287 291 289 288 288 289 292 291 290 290 291 288 289 288 290 290 291 293 295 295 296 295 295 293 295 296 296 291 288 289 293 295 297 299 299 300 299 296 296 297 296 293 294 293 292 296 291 291 291 291 287 294
303 303 303 303 303 304 304 304 304 304 303 300 299 296 291 291 291 294 303 303 299 290 281 282 285 287 289 288 287 289 288 287 287 287 288 288 288 286 286 289 292 290 294 293 289 293 285 290 290 289 292 291 295 296 295 296 294 294 294 292 297 289 292 291 286 286 288 290 293 294 297 297 295 294 296 297 297 297 297 297 298 290 292 293 290 285 292
303 303 303 303 303 303 304 304 304 303 304 304 299 293 294 292 294 294 297 300 297 286 288 286 285 285 286 285 285 287 288 290 290 289 288 291 290 288 287 290 292 292 294 292 294 294 292 287 293 294 292 294 295 295 296 296 295 296 298 299 298 292 291 290 284 280 278 278 280 283 287 291 295 296 295 296 296 296 294 289 292 287 292 293 290 290 303
303 303 303 303 303 303 303 303 303 303 303 303 300 294 293 290 284 289 292 295 294 292 293 290 287 285 286 285 287 288 285 289 292 292 290 292 291 291 291 293 294 292 292 291 288 292 295 292 289 291 292 294 293 295 296 295 296 298 302 300 298 293 295 293 291 288 285 288 290 294 295 293 290 293 294 295 296 297 297 295 290 288 291 291 294 295 302
303 303 303 303 303 303 303 303 303 303 303 303 299 296 292 293 286 286 284 290 290 289 291 289 288 285 288 283 288 285 287 289 289 293 287 292 291 292 292 291 291 291 292 291 291 293 292 295 293 293 293 296 294 296 296 296 297 301 298 301 297 294 290 292 294 293 292 293 293 295 294 292 293 293 293 295 295 296 295 290 289 295 292 287 295 297 298
303 303 303 303 303 303 303 303 303 303 302 303 301 291 294 285 289 289 291 285 284 286 287 289 288 289 289 286 289 286 286 287 285 290 292 292 293 289 293 292 292 293 291 293 289 290 292 293 290 294 295 295 294 293 295 294 298 298 296 300 296 293 287 293 293 293 295 294 294 295 294 294 294 294 294 294 295 295 293 294 296 296 290 289 297 299 298
303 303 303 303 303 303 303 303 303 303 302 303 300 291 294 292 290 289 293 286 289 288 290 290 289 288 289 287 288 286 287 286 288 287 287 289 290 292 285 291 293 292 292 293 290 294 288 288 298 296 296 295 292 291 292 295 297 296 296 297 298 294 290 293 294 293 293 293 294 295 294 294 294 294 295 296 295 295 295 296 297 296 296 297 299 300 299
303 303 303 303 303 303 303 303 303 303 302 303 297 294 289 287 287 286 291 290 287 288 289 289 289 287 290 285 289 288 288 287 289 290 288 285 288 292 289 291 294 294 292 292 291 293 294 295 291 299 299 297 298 292 293 292 296 296 295 295 298 293 288 293 293 291 291 295 296 296 295 294 292 293 294 295 295 295 296 297 297 298 298 298 298 299 298
302 303 303 303 303 303 303 303 303 302 302 297 294 293 294 293 294 292 285 285 289 291 290 288 288 286 288 286 289 290 289 288 291 290 293 290 288 291 291 294 295 295 295 293 293 296 297 297 299 301 301 295 300 296 297 297 293 295 296 296 297 296 291 295 294 287 289 294 293 295 296 296 294 293 294 294 295 293 295 293 297 296 295 297 298 297 297
302 302 303 303 303 303 303 303 303 302 302 297 295 290 297 295 297 296 289 284 290 288 292 291 289 285 289 290 290 289 290 292 292 287 293 294 295 295 294 295 295 296 296 295 297 300 301 302 303 303 304 303 304 303 302 301 295 294 296 297 294 293 293 289 289 286 287 293 295 294 294 294 290 290 295 296 296 297 297 298 299 299 300 295 292 295 301
301 302 302 302 302 302 302 303 303 302 301 295 293 292 294 291 289 291 291 284 287 290 289 288 288 290 292 293 291 293 292 293 293 288 287 294 296 299 298 295 293 293 295 298 303 303 303 304 305 307 305 303 303 304 303 303 302 298 297 295 295 294 294 291 293 285 287 293 293 294 290 282 285 301 305 300 297 296 295 295 298 300 301 298 301 301 303
300 301 301 301 301 302 302 302 302 303 301 301 299 294 296 296 294 292 287 283 285 290 288 286 288 290 290 292 292 291 291 291 292 294 291 293 295 297 297 297 296 289 301 305 305 304 304 306 306 306 304 303 302 302 302 302 302 303 300 297 295 293 292 291 294 288 287 291 293 286 281 284 301 303 305 304 304 303 300 299 300 301 302 305 303 303 304
300 300 300 301 300 301 302 302 302 302 302 302 300 294 298 298 293 289 288 285 283 287 286 288 291 291 292 292 291 292 293 294 294 294 294 294 294 296 298 297 295 297 303 303 303 302 299 297 301 302 300 302 303 302 300 301 301 302 301 299 296 292 290 292 290 291 291 288 287 279 282 296 301 303 303 305 304 304 301 299 302 304 305 305 300 302 305
299 299 300 300 300 301 301 302 302 302 302 302 299 298 299 299 291 289 288 285 284 288 289 288 291 290 290 291 291 293 294 293 294 295 292 296 295 296 299 299 301 303 303 304 301 300 297 293 293 294 294 297 297 296 300 299 300 300 299 299 299 297 294 292 288 292 285 287 287 286 295 295 300 298 301 300 300 300 297 290 295 304 306 304 302 303 307
299 299 299 300 300 301 301 301 301 301 302 302 302 300 299 299 295 290 289 288 284 286 288 285 288 289 290 290 291 290 292 293 293 293 296 298 296 298 300 301 304 303 305 301 298 298 295 290 288 287 287 287 283 286 296 293 298 302 303 303 299 299 292 294 290 287 291 287 286 286 286 283 290 301 308 308 310 309 306 300 296 305 306 307 305 306 310
299 299 299 299 300 300 301 300 301 301 301 302 301 299 300 302 299 296 291 287 285 282 289 292 292 290 289 291 293 291 290 290 292 293 294 296 297 300 302 303 304 304 302 301 300 296 292 288 286 286 284 286 291 289 287 295 292 297 302 302 299 299 298 296 291 289 289 287 285 284 283 286 299 303 306 309 309 309 308 299 292 305 308 307 307 309 312
298 299 299 299 300 300 300 300 300 301 301 301 299 299 298 303 299 294 290 288 286 283 291 292 293 292 290 290 293 292 293 290 293 288 289 292 296 298 301 303 305 303 301 299 298 294 291 289 290 290 291 294 287 286 294 293 289 293 299 301 297 295 293 293 289 288 288 287 285 284 288 288 299 305 306 307 309 309 305 288 288 307 309 309 309 309 311
298 299 299 299 299 300 300 300 300 301 301 301 301 298 298 303 302 297 291 288 286 286 291 294 293 291 290 292 291 295 296 294 294 295 293 296 297 298 300 300 298 303 305 295 294 291 289 289 287 287 287 296 297 294 284 290 288 289 290 292 292 291 290 291 287 289 288 286 287 289 290 299 305 305 308 308 310 306 291 286 297 309 310 310 310 311 312
297 298 298 299 299 300 300 300 300 300 301 301 301 300 301 304 302 299 293 287 287 284 293 297 297 293 295 297 294 296 297 296 296 291 291 292 297 302 301 302 303 294 301 293 295 290 289 289 297 293 289 291 295 287 295 288 288 293 295 291 292 291 291 290 291 289 288 288 287 287 290 302 307 308 308 309 304 291 291 302 306 309 311 312 312 312 313
297 298 298 298 299 299 299 300 300 300 301 301 301 296 300 303 304 301 294 287 287 286 291 292 294 291 295 294 294 293 295 296 296 293 292 290 302 302 298 292 300 301 296 299 290 295 290 288 291 296 292 292 293 299 291 293 298 294 293 296 291 291 288 287 288 290 291 289 287 286 283 294 309 308 306 308 296 295 305 309 310 310 312 312 313 314 313
297 297 298 298 299 299 299 299 300 301 301 301 301 298 297 303 304 303 302 296 288 284 289 298 297 295 297 296 297 297 296 294 296 294 298 298 302 299 289 289 296 296 292 293 289 290 292 290 295 293 297 296 298 294 288 290 293 301 299 295 294 298 289 289 290 294 287 287 284 286 294 304 309 307 298 304 307 307 309 310 309 311 313 313 313 312 313
297 297 298 298 299 299 299 300 300 300 301 301 300 299 295 300 303 304 303 300 291 287 292 299 299 297 298 299 299 300 299 299 302 303 299 297 302 300 300 300 302 300 301 301 297 294 298 297 299 293 291 295 300 291 295 290 287 297 301 299 290 300 295 295 290 296 292 290 293 304 305 308 310 309 307 309 309 309 309 311 310 310 312 314 312 311 312
297 297 297 298 298 299 299 299 300 300 300 301 300 298 295 297 300 303 303 295 297 297 298 297 298 299 300 300 302 302 302 303 303 304 304 299 296 301 300 301 299 305 304 304 296 295 297 298 293 298 295 298 294 293 295 295 291 297 292 300 298 303 303 304 301 297 304 303 303 306 304 306 308 307 307 307 308 309 310 311 311 311 313 313 312 312 312
297 297 297 298 298 299 299 299 300 300 300 301 300 298 297 299 299 300 300 298 294 290 297 299 296 295 300 299 303 305 303 302 302 304 308 306 295 295 300 302 305 301 302 304 305 302 300 298 301 300 292 299 301 294 289 288 292 300 297 296 299 304 302 301 296 302 296 291 304 304 304 305 306 306 308 309 308 309 310 312 312 312 312 312 313 313 311
297 297 297 298 298 299 299 300 300 300 300 300 301 301 301 300 302 300 295 290 292 291 288 293 297 302 303 304 305 304 304 305 306 305 305 305 302 298 298 304 307 301 300 303 306 302 297 294 298 296 291 301 300 292 299 293 293 302 294 297 299 297 305 301 301 300 294 295 303 303 303 304 305 306 305 307 309 309 310 312 314 313 313 313 313 312 310
297 297 297 298 298 299 299 300 300 300 300 300 301 299 298 298 302 303 300 298 296 294 289 291 299 307 307 305 303 305 309 307 306 305 305 304 304 304 304 306 306 308 305 305 304 297 296 295 295 295 296 292 301 295 295 300 301 303 299 300 303 303 302 295 301 298 302 301 302 302 303 304 304 305 306 308 308 310 309 311 312 313 312 311 310 312 309
297 297 297 298 298 299 299 299 300 300 300 300 300 301 301 301 303 301 299 299 295 292 292 292 299 303 305 302 305 306 307 307 307 305 304 305 305 306 304 302 300 302 302 301 303 298 297 295 295 296 299 296 299 300 303 300 300 295 297 301 304 302 298 303 299 295 295 296 301 304 297 296 305 305 307 307 308 310 310 310 311 311 310 310 309 309 310
297 297 297 298 298 299 299 300 300 300 300 301 301 302 304 302 304 304 304 303 298 291 291 292 295 300 305 302 305 305 306 306 307 305 303 303 304 305 303 301 301 299 298 296 293 294 295 294 296 295 294 301 298 296 302 304 304 302 302 301 302 301 303 302 296 295 294 304 305 307 306 306 307 308 308 308 308 310 309 309 310 310 310 311 310 308 308
297 297 298 298 299 299 300 300 300 300 301 300 301 302 302 304 305 305 304 305 303 298 295 295 300 300 295 300 305 305 305 307 307 305 303 303 303 303 302 300 298 299 298 296 294 296 297 296 295 296 296 303 301 296 299 294 294 294 299 301 302 304 304 303 302 304 305 304 306 306 305 305 304 306 307 307 308 308 308 310 310 310 310 310 310 309 307
297 297 298 298 299 299 300 300 300 300 300 301 300 300 297 300 305 305 305 305 303 300 293 291 290 295 305 305 304 305 302 304 304 305 304 304 302 302 301 299 299 300 300 295 295 293 293 294 294 300 302 304 300 297 295 298 296 298 300 302 303 303 303 304 305 303 303 303 305 305 305 304 305 306 307 308 308 309 309 309 310 310 310 311 310 308 308
297 298 298 298 299 299 300 300 300 300 300 300 299 294 294 292 300 304 303 304 305 299 294 293 291 296 297 306 305 302 301 301 303 304 304 304 303 303 304 303 302 301 294 295 294 293 293 293 293 297 301 300 296 296 298 298 295 298 300 301 303 303 303 304 304 305 304 305 305 305 305 304 306 305 306 307 307 309 309 310 309 307 309 309 309 308 307
297 298 298 299 299 299 300 300 300 300 301 299 297 298 299 299 303 304 304 303 304 300 294 291 293 294 294 299 305 304 302 302 303 304 302 304 301 302 303 303 299 301 297 294 293 293 292 292 291 298 300 300 297 298 300 299 295 295 300 301 303 303 303 304 304 304 304 305 305 304 304 303 305 305 304 306 307 309 309 309 310 310 306 309 308 308 307
297 298 298 299 299 299 300 300 300 300 300 302 303 302 302 302 302 303 303 304 302 299 298 293 290 292 292 297 304 303 301 306 304 304 299 303 302 303 299 303 302 299 301 295 293 292 296 294 293 295 298 301 293 297 300 294 296 299 299 300 302 302 303 303 303 304 304 304 304 302 303 303 303 304 306 306 308 308 308 308 309 308 308 307 306 304 304
297 298 298 299 299 300 300 300 300 300 300 299 300 304 307 303 304 304 306 305 301 302 297 293 290 291 292 302 297 301 303 298 299 299 294 300 301 302 298 301 302 294 297 296 295 294 296 293 294 294 298 294 297 296 292 296 298 299 301 301 303 302 302 302 303 302 303 303 304 304 305 305 305 306 306 306 307 307 308 308 308 306 306 305 303 302 301
298 298 298 299 299 300 300 300 303 303 303 304 304 307 307 301 302 303 304 303 296 292 293 293 294 292 291 292 290 296 303 300 295 297 294 298 303 300 302 296 296 294 293 300 294 294 292 294 298 294 292 298 294 291 293 298 297 299 300 301 302 302 302 301 301 302 303 304 304 304 304 305 304 303 304 305 305 305 306 306 307 306 304 303 302 301 301
297 298 298 299 299 300 303 302 304 304 303 303 304 303 301 303 305 306 305 305 302 297 293 292 293 292 291 288 288 294 302 299 300 301 297 295 300 301 301 297 292 294 300 295 291 296 291 298 296 291 294 292 291 295 299 300 299 300 301 301 302 302 302 302 301 302 303 303 303 303 303 304 303 303 303 303 304 304 305 305 305 305 303 301 301 301 301
297 298 299 299 301 305 303 301 304 304 301 301 301 300 300 303 307 306 304 301 304 304 298 294 293 294 295 292 294 296 300 290 297 296 296 293 292 294 296 294 291 293 294 293 292 291 295 301 295 291 293 292 293 299 301 301 301 301 301 302 302 302 302 302 303 303 302 302 302 302 302 302 302 302 302 302 302 303 303 302 303 302 301 300 300 299 300
298 298 299 300 301 296 296 299 303 300 299 299 299 301 303 302 297 297 296 295 299 300 297 298 293 298 300 296 291 300 299 293 299 292 293 294 293 291 294 293 292 293 288 290 292 298 295 293 292 292 292 299 300 300 301 302 302 303 303 303 302 302 302 302 303 302 300 299 300 300 300 300 300 300 300 300 301 301 302 303 303 303 301 300 299 299 299
298 299 299 299 298 295 295 299 302 300 300 302 303 299 296 297 295 291 293 296 296 295 298 297 295 299 297 296 296 303 296 292 293 294 289 295 291 289 293 289 290 292 290 290 292 299 290 290 291 293 292 297 298 300 301 302 302 303 303 303 303 303 303 303 303 302 301 300 301 302 302 300 299 299 301 300 301 302 302 302 302 301 301 299 299 298 298
296 293 291 293 294 296 300 302 300 300 302 296 298 295 291 295 291 289 293 290 292 293 297 292 298 297 298 295 293 294 302 296 290 289 291 293 297 290 291 292 291 290 286 287 289 298 290 285 289 291 290 296 298 301 302 302 302 303 303 303 304 303 303 303 302 303 303 303 304 303 304 303 303 302 301 301 300 300 300 301 301 301 300 300 299 299 298
293 292 293 291 295 296 297 299 301 301 296 294 293 291 291 289 293 292 290 289 289 290 296 296 298 297 298 297 296 293 301 302 301 299 293 289 295 295 290 287 291 288 286 286 291 293 292 289 288 287 288 297 300 301 302 302 302 302 303 304 304 304 303 303 303 304 303 303 303 303 303 303 303 303 303 303 301 300 300 300 300 300 300 299 298 299 299
293 292 293 296 296 297 296 297 296 293 293 294 289 287 290 290 291 290 291 287 288 291 296 296 291 295 295 297 296 298 296 300 298 293 292 288 291 290 288 290 290 287 284 289 293 291 290 285 286 287 293 300 302 302 302 301 301 301 302 303 303 304 303 303 302 303 304 303 303 303 302 303 303 303 303 302 301 300 300 300 300 299 299 299 300 299 299
298 298 297 294 293 293 293 291 293 292 287 287 286 285 288 286 288 288 288 292 295 294 294 300 298 300 301 300 299 300 296 300 293 292 291 288 291 291 289 288 287 284 287 293 290 288 285 285 285 289 297 300 302 302 302 302 302 302 303 304 304 304 304 303 303 303 303 303 303 302 302 302 302 302 303 303 302 301 301 300 299 299 299 300 299 299 299
297 297 292 290 289 291 291 284 292 289 287 288 286 282 285 285 287 288 287 290 293 293 297 293 295 294 292 299 296 293 295 297 293 293 292 292 290 287 287 285 286 289 294 289 288 285 285 288 290 294 299 301 302 302 302 302 302 302 302 303 303 303 303 303 303 303 303 303 302 302 302 302 301 301 302 302 302 301 300 300 300 299 299 300 299 298 299
292 290 289 289 287 291 288 281 291 287 283 286 288 288 288 285 288 290 290 292 295 293 296 297 296 296 293 299 296 296 292 291 294 290 287 290 287 288 286 285 289 290 287 285 286 287 287 286 293 296 297 299 301 302 303 303 302 302 302 302 303 303 303 302 302 303 302 302 301 301 301 301 301 300 300 300 301 301 300 298 299 298 299 298 298 297 297
288 287 288 285 281 287 287 284 286 284 288 290 289 292 292 292 293 292 295 296 294 296 295 296 296 296 294 297 292 292 293 293 290 289 290 290 286 284 288 291 290 286 285 286 284 283 285 289 292 296 299 301 301 302 302 303 303 303 302 301 302 303 303 303 303 302 302 302 302 301 301 301 300 299 298 299 299 299 299 299 299 299 298 298 297 297 297
289 290 289 288 283 288 290 285 286 289 291 292 293 293 294 293 294 295 296 296 295 296 296 298 297 296 294 293 293 293 292 293 288 289 291 286 285 287 289 286 282 284 282 282 283 285 288 291 295 298 300 302 302 302 302 302 303 302 302 302 302 303 303 303 303 302 303 303 302 301 301 301 300 301 300 299 298 299 298 299 300 300 299 298 298 298 297
286 290 289 283 282 287 286 288 293 293 294 295 294 294 294 296 295 294 296 297 296 297 297 297 295 297 294 296 295 291 291 292 288 289 289 287 288 285 284 283 283 285 285 285 286 290 292 294 297 299 301 303 303 302 302 302 302 303 302 302 302 303 303 303 302 303 303 302 302 301 300 300 300 299 299 299 299 299 299 300 300 300 299 298 298 297 296
289 287 286 286 288 288 289 292 293 291 292 294 295 295 295 295 294 294 296 297 297 296 297 296 294 294 291 293 291 290 288 291 286 286 289 287 283 278 281 280 282 282 286 289 290 292 294 296 299 300 302 302 303 302 302 302 302 303 303 302 302 303 303 303 303 303 303 302 302 301 300 300 300 300 300 300 299 299 300 300 300 300 300 299 298 297 296
287 287 287 287 289 290 294 293 292 290 292 293 294 293 295 295 294 295 297 296 297 297 298 295 294 292 291 290 287 289 288 290 288 288 287 284 283 284 284 282 284 285 288 292 293 295 297 299 301 300 302 302 302 303 302 302 300 303 303 304 304 303 303 304 303 303 303 302 302 302 302 301 300 300 300 300 300 299 298 298 299 299 299 299 298 297 296
289 288 289 294 289 289 291 287 287 288 290 291 293 293 294 293 293 294 297 296 297 296 293 291 291 290 290 289 288 284 285 290 288 286 286 285 287 285 284 284 287 290 293 296 297 298 299 301 301 301 302 302 303 302 302 303 303 303 304 304 303 304 304 304 304 303 303 303 303 296 301 301 301 302 302 302 300 299 299 297 297 297 298 298 298 297 297
287 285 286 290 293 292 293 293 292 292 292 293 293 294 295 293 294 295 297 297 294 291 289 291 290 289 287 286 287 289 290 288 286 286 285 287 288 286 286 289 291 294 296 296 298 299 299 301 302 301 302 302 302 302 302 303 303 304 303 303 304 303 303 304 303 303 303 303 303 303 302 302 301 301 301 301 300 299 297 296 296 297 297 298 299 299 298
Wind_Speed
20 19 19 20 21 22 22 21 21 20 18 9 9 5 2 5 4 2 0 2 5 5 3 1 0 1 3 3 3 3 4 5 6 7 4 5 2 4 2 3 4 3 1 5 6 7 9 10 7 9 11 10 2 16 20 19 17 13 11 14 9 2 8 12 11 10 10 6 9 14 12 14 16 16 15 14 16 16 14 11 6 8 8 6 4 3 3
19 19 19 19 21 22 22 22 22 20 18 8 8 4 3 3 2 1 2 2 4 6 2 3 3 3 3 3 6 5 6 6 6 4 5 3 4 3 3 2 2 2 1 3 4 2 8 4 7 7 6 8 7 16 19 23 15 14 11 9 13 8 8 11 12 10 11 8 10 12 13 13 13 14 16 16 15 15 12 10 7 7 14 13 8 8 4
19 18 18 20 20 21 21 22 20 20 20 11 5 4 2 1 2 1 1 1 3 4 3 3 3 4 5 5 6 4 4 4 5 6 7 4 4 4 2 3 5 2 2 3 2 2 2 8 2 4 7 6 8 15 18 22 16 14 11 7 12 6 10 12 13 15 16 16 17 18 19 19 12 14 17 17 17 17 14 10 8 9 10 14 10 6 7
19 18 18 19 19 20 20 20 17 19 18 13 3 4 4 2 2 1 2 1 2 3 3 4 4 5 5 5 3 4 4 1 3 5 6 5 6 5 6 5 3 1 3 5 0 8 2 0 6 7 7 7 6 12 19 19 15 16 13 12 12 3 10 11 10 11 10 8 7 6 10 11 15 18 19 19 17 17 15 9 9 11 7 10 13 11 8
19 17 18 19 19 19 20 19 17 18 19 15 4 2 2 4 2 3 3 1 4 3 2 3 3 3 5 4 5 5 5 5 3 2 3 2 5 5 4 2 0 4 5 7 9 4 6 5 4 4 8 5 7 13 17 18 17 13 11 13 10 5 9 12 9 10 10 10 9 8 14 16 16 15 17 18 18 19 17 13 14 10 7 11 9 14 11
19 18 18 19 19 19 20 20 17 18 19 18 3 3 2 1 2 1 2 4 3 3 1 2 4 6 5 5 5 5 6 5 4 1 1 6 4 3 3 3 1 4 4 4 4 3 6 6 4 5 5 8 11 10 13 15 14 14 12 14 10 9 6 13 8 8 6 8 9 11 15 16 17 19 17 18 18 19 19 18 15 12 10 7 8 10 12
20 18 18 19 20 19 19 19 18 17 19 14 4 5 1 1 2 3 2 4 4 6 8 8 7 7 5 4 5 6 5 5 3 2 3 4 4 3 2 7 7 4 1 1 6 3 6 4 6 4 5 7 11 10 12 12 15 15 13 14 9 7 7 12 11 8 6 4 4 7 13 15 17 18 19 19 20 21 20 17 15 15 10 11 4 11 13
21 21 20 18 19 20 20 19 19 17 19 11 3 4 4 3 4 3 3 6 8 8 5 4 5 6 3 3 2 3 4 6 4 1 2 3 3 0 1 4 6 5 3 2 4 7 7 6 3 5 2 6 4 11 9 9 11 14 13 12 12 9 7 12 13 8 7 4 4 7 11 11 13 16 19 19 19 19 19 16 16 15 12 12 8 6 9
21 21 19 18 18 20 22 21 19 16 15 5 5 3 4 4 3 5 6 7 5 4 4 4 4 4 4 5 4 3 2 4 5 6 3 5 3 1 5 8 4 4 4 3 4 5 5 4 5 5 5 2 4 1 6 8 13 16 12 11 10 12 5 7 9 7 8 5 6 8 8 10 14 16 17 18 19 20 18 16 16 15 14 14 9 8 8
21 21 20 20 20 21 21 20 20 14 11 5 4 4 4 4 4 4 4 4 5 7 3 4 3 4 2 3 4 4 6 7 6 4 2 3 4 5 4 6 4 5 5 7 7 6 6 6 5 5 2 2 1 2 2 3 11 11 13 10 11 11 8 7 7 8 8 9 5 7 7 8 11 13 16 18 17 14 14 15 16 17 14 13 11 11 5
22 21 22 20 21 21 21 21 20 18 10 7 6 4 6 5 5 4 3 4 3 4 5 4 5 2 4 3 7 6 8 7 5 5 1 2 5 4 3 5 5 2 5 6 7 7 8 7 4 2 2 0 2 2 3 2 4 11 12 10 9 13 10 7 9 6 8 10 6 5 7 11 9 1 2 11 17 19 19 15 15 13 14 12 9 10 9
23 22 21 22 21 21 21 21 20 19 13 6 5 4 4 5 6 4 3 4 5 5 4 5 6 7 9 9 9 9 10 8 8 5 7 6 5 5 5 4 3 1 4 3 6 8 7 4 4 1 1 2 2 2 4 2 5 4 10 12 10 13 10 7 9 7 7 9 7 6 10 9 5 0 4 4 4 2 10 13 11 12 13 5 6 9 8
21 22 22 21 21 21 21 20 20 20 18 10 8 7 4 4 4 3 4 5 6 6 6 7 8 10 9 9 8 7 7 8 8 8 8 9 10 7 5 5 4 3 4 8 9 8 1 3 4 2 5 4 4 3 3 5 5 6 6 10 11 8 10 6 4 6 4 7 7 8 7 5 3 2 1 3 2 3 1 6 9 10 11 12 15 12 11
20 21 20 21 21 21 21 21 20 20 21 14 9 7 6 4 2 2 2 4 7 7 8 9 6 3 5 6 7 7 6 6 6 6 7 6 9 9 7 6 6 5 5 7 7 5 3 3 4 5 5 5 5 5 4 5 2 6 10 10 9 13 10 6 7 5 7 6 9 6 5 2 4 3 7 9 7 9 11 8 12 13 12 13 13 13 10
20 20 20 20 21 21 21 20 20 20 19 19 8 7 6 5 2 1 2 2 7 10 5 4 5 8 7 7 5 4 4 4 4 4 5 6 8 8 7 5 3 3 2 4 2 3 1 3 3 8 5 6 6 4 4 4 1 1 3 7 11 11 10 9 7 4 6 9 9 9 7 7 6 6 4 9 2 2 6 7 9 13 16 15 14 14 12
20 20 20 20 20 19 20 19 19 20 19 19 8 7 6 2 4 3 3 3 5 6 2 4 8 7 6 6 5 4 2 2 2 3 3 4 6 5 5 5 4 4 3 4 3 2 2 4 4 7 6 8 7 7 5 6 4 3 4 8 12 12 11 12 10 5 7 7 9 9 9 5 3 7 5 8 5 6 4 6 12 11 15 15 14 13 14
20 20 19 20 19 20 19 18 19 18 18 18 9 7 6 2 6 4 3 2 2 8 11 11 6 5 6 5 3 4 4 2 3 2 1 0 2 2 4 2 5 6 6 5 4 3 4 5 5 6 4 6 7 4 9 6 5 7 4 8 14 12 9 6 9 8 7 8 9 8 5 3 4 6 7 8 7 5 7 7 7 13 18 17 16 16 17
21 20 20 20 20 19 19 18 19 18 18 18 11 8 8 5 4 4 1 4 5 7 5 5 4 5 4 3 5 4 3 4 4 4 4 4 3 4 5 7 6 5 5 4 5 4 5 6 8 8 6 3 2 4 7 10 8 7 8 9 11 11 10 10 11 10 9 10 8 6 4 3 4 6 9 9 8 6 6 8 2 2 10 16 18 19 19
21 21 20 20 20 19 20 20 20 19 18 18 13 9 5 5 1 6 2 2 3 6 6 5 8 12 10 6 7 6 5 5 4 2 2 2 2 2 8 3 1 4 6 3 5 5 6 5 4 3 7 5 5 6 6 8 7 10 9 8 10 10 7 7 9 11 11 9 10 8 3 4 6 7 10 10 8 5 6 3 3 3 8 11 14 17 19
21 21 21 21 20 20 20 20 20 19 18 17 12 9 9 8 5 6 6 4 3 7 12 10 6 10 5 5 5 6 5 6 6 5 4 1 4 0 4 3 3 2 5 3 5 4 5 7 6 4 5 6 7 1 5 4 3 7 9 8 6 10 7 9 9 6 7 6 9 7 11 3 10 14 9 4 4 1 3 2 3 3 5 10 9 11 13
21 21 21 22 22 22 20 20 20 19 18 17 13 9 9 5 4 6 8 7 2 7 8 2 5 10 9 11 11 11 9 8 6 6 6 4 2 2 4 1 5 5 5 5 6 5 4 5 6 4 3 4 6 3 6 5 8 3 2 7 8 9 9 7 8 9 7 7 8 5 1 7 13 14 3 11 0 4 4 5 3 2 4 8 8 10 12
21 21 22 22 22 22 21 20 20 19 19 17 17 9 9 6 5 6 7 7 6 8 7 4 3 10 13 14 13 12 14 15 12 8 6 4 3 5 3 3 2 5 3 5 5 2 5 3 2 4 4 4 1 6 5 7 8 6 3 1 6 6 7 4 6 10 8 4 2 5 2 5 10 2 5 6 5 2 3 4 3 3 4 6 7 10 12
21 21 21 21 22 23 22 21 20 19 19 19 15 8 11 10 8 7 7 7 6 10 10 12 11 14 13 15 18 17 16 13 12 11 10 6 3 5 5 3 1 2 2 2 2 1 3 4 5 4 4 6 5 6 5 7 4 7 6 4 2 3 3 4 4 7 2 2 2 1 1 3 5 1 3 4 4 2 1 2 1 2 3 5 6 10 12
21 22 21 21 22 23 23 22 21 19 18 18 15 10 11 10 10 7 6 5 4 8 7 5 3 1 1 4 4 10 10 11 15 13 8 8 6 1 1 2 1 1 2 2 2 4 3 3 3 1 4 1 4 6 8 8 6 4 7 4 4 2 1 2 8 5 6 6 5 3 2 2 4 4 3 2 2 1 1 1 1 2 4 6 6 10 12
21 22 22 22 22 23 23 23 22 21 19 19 16 11 11 10 7 5 5 3 2 3 4 4 5 7 3 3 3 6 10 9 8 10 11 10 9 6 2 4 2 3 1 1 0 1 1 3 3 2 4 1 2 5 6 6 6 4 5 4 5 5 3 4 5 7 9 1 4 3 1 2 3 4 5 5 1 2 2 0 1 3 5 6 9 13 14
21 22 22 22 22 23 23 23 23 22 21 21 17 11 10 10 8 6 6 6 5 3 4 4 1 2 4 7 4 2 5 10 10 12 13 13 13 12 6 2 1 1 3 2 1 3 3 4 4 3 5 0 1 4 5 2 4 3 6 2 4 5 5 5 5 6 3 3 3 3 4 6 8 8 5 2 1 2 4 4 5 7 9 11 12 11 13
22 22 22 22 23 22 23 23 23 22 22 22 14 10 10 9 7 6 5 3 7 3 3 4 6 7 6 12 4 3 4 7 9 9 11 12 12 10 7 6 6 4 5 5 5 3 3 4 5 6 4 1 3 5 4 3 5 3 2 4 3 5 7 2 3 4 4 4 3 7 3 1 6 8 8 6 4 3 5 6 6 8 10 9 11 11 13
23 23 23 23 23 23 23 23 23 23 23 22 14 10 9 8 5 4 6 6 3 3 7 7 8 11 14 8 2 4 1 5 6 7 7 9 10 8 8 6 3 4 2 1 2 3 4 6 6 1 0 0 5 6 5 2 1 3 2 4 1 4 2 2 4 2 1 7 4 2 3 2 5 3 6 4 3 3 5 6 7 8 9 10 12 14 14
24 24 24 24 23 23 22 23 23 22 23 19 11 9 5 3 2 3 4 4 4 5 7 10 11 7 3 5 7 3 4 4 6 6 6 7 9 8 7 4 3 3 2 3 4 5 3 0 1 3 2 2 4 3 6 5 5 3 4 3 1 3 2 3 5 5 3 4 3 4 3 4 4 3 4 3 2 2 4 5 7 8 9 10 12 14 15
24 24 24 25 24 23 23 22 24 22 20 11 8 5 3 4 1 2 2 2 3 4 4 5 4 1 5 3 3 1 3 5 5 5 6 6 7 7 6 5 3 4 3 2 2 1 1 0 0 0 1 2 3 1 3 5 5 5 3 2 1 1 1 2 4 5 4 3 3 5 3 4 4 4 4 4 2 2 4 6 7 8 9 10 12 13 14
26 25 25 25 25 25 25 24 23 21 16 7 5 2 2 1 4 2 1 2 3 4 3 3 6 6 4 1 2 4 5 4 5 4 4 4 5 6 5 5 3 5 2 2 1 0 1 1 0 1 1 1 1 3 3 5 4 6 4 2 1 1 0 1 3 2 1 3 3 4 5 5 4 5 5 4 4 3 5 5 7 8 9 10 12 13 13
26 26 26 26 26 25 25 24 22 17 9 6 6 3 3 3 3 1 1 3 3 5 4 6 3 1 3 2 1 3 3 2 5 5 4 5 5 5 6 6 4 7 3 0 1 0 0 2 1 1 3 2 3 2 3 2 3 6 4 3 3 2 1 1 2 3 3 3 3 3 4 4 3 3 3 5 5 5 5 7 8 10 10 10 10 12 14
26 26 27 26 26 26 26 25 22 14 9 9 12 14 14 15 12 10 7 5 4 4 2 2 3 2 2 4 2 4 6 3 4 3 4 2 5 7 4 4 6 4 3 2 0 0 1 1 2 2 2 1 1 0 1 3 4 4 3 3 4 3 4 4 4 3 3 3 5 4 2 2 3 3 5 6 6 6 7 9 10 11 11 12 13 13 13
26 28 28 27 27 27 25 24 20 12 7 4 4 4 4 3 2 3 5 5 4 3 2 2 2 2 2 1 1 5 7 5 4 3 1 2 1 5 4 7 5 2 1 2 2 1 3 2 1 0 2 1 1 1 2 4 5 5 5 5 5 4 4 5 4 3 2 4 3 2 4 6 5 5 5 6 7 7 8 9 11 12 12 13 12 12 13
26 27 28 29 27 26 24 14 4 5 3 3 1 3 3 7 8 6 8 5 3 2 2 2 2 3 3 2 3 5 6 5 4 3 2 2 1 1 2 2 2 2 2 2 1 1 0 1 3 2 1 0 1 2 1 6 5 5 5 7 6 4 5 4 4 3 3 3 4 5 5 5 6 5 6 6 7 8 9 10 11 12 12 11 12 13 13
27 28 28 28 29 18 3 4 4 3 4 1 3 6 10 10 4 4 7 6 4 3 2 1 1 2 3 3 4 3 6 2 2 1 0 1 2 1 2 0 2 2 1 1 2 2 1 4 3 1 0 1 3 3 5 6 7 7 7 7 7 4 4 4 5 5 5 5 6 5 5 5 4 4 5 6 7 8 9 11 12 11 11 12 13 13 12
27 28 29 24 11 4 3 1 2 2 4 5 10 13 13 7 4 5 4 3 4 3 4 2 3 3 4 3 2 1 5 3 5 2 4 2 2 1 2 0 2 1 2 2 2 2 2 2 2 1 3 3 3 5 4 6 6 7 7 6 4 2 4 5 5 6 7 6 6 5 3 4 4 4 5 6 7 8 9 11 11 12 13 13 12 11 12
26 25 11 6 3 3 2 1 2 5 10 9 5 4 4 4 1 1 1 2 2 2 2 3 2 2 1 3 3 5 5 2 3 3 1 2 1 1 1 1 2 1 1 2 3 2 1 0 2 2 2 4 4 4 5 5 5 5 6 5 3 3 4 5 5 5 5 5 4 4 4 4 4 5 6 7 8 9 9 8 9 9 10 11 11 11 11
16 8 4 3 3 1 2 4 5 11 7 3 3 2 2 1 2 2 1 1 1 2 2 2 2 3 4 5 2 4 4 4 4 3 3 4 2 2 1 1 1 1 1 2 2 2 1 2 0 1 3 4 5 5 4 5 5 4 4 3 3 5 5 5 3 1 1 2 1 4 2 4 6 6 7 7 7 7 8 9 9 10 11 12 12 11 12
7 7 4 4 2 4 6 6 9 8 3 2 2 2 1 2 2 0 2 2 2 1 1 1 1 3 3 4 5 1 2 4 3 3 3 1 1 2 1 0 1 1 2 2 3 4 2 3 0 1 3 3 5 7 6 6 6 5 3 4 5 5 4 3 2 2 2 2 3 4 1 3 5 7 8 8 8 8 9 8 8 9 10 11 12 13 13
6 7 5 3 7 7 7 11 8 3 2 2 1 1 1 2 1 1 1 2 0 1 0 4 3 3 3 2 3 2 3 1 1 2 2 1 1 2 1 1 1 0 2 3 1 2 1 0 2 3 3 3 7 8 8 7 6 5 5 4 5 6 4 3 3 2 3 5 6 5 4 5 6 6 8 8 8 8 8 8 8 9 10 11 11 10 10
9 8 9 11 12 11 10 4 2 1 1 1 1 1 0 1 0 2 1 2 1 0 2 1 2 4 4 3 4 3 0 2 2 1 2 1 1 2 1 0 1 1 2 2 2 2 1 3 3 3 2 5 7 8 8 7 6 6 6 5 4 4 3 2 3 4 4 5 5 5 5 5 6 5 7 8 8 8 8 8 9 10 11 10 9 10 12
17 13 6 5 3 2 2 2 2 1 1 2 1 1 1 2 1 1 1 1 1 2 2 2 2 4 3 2 3 4 1 2 2 0 1 2 0 1 1 0 1 1 2 2 2 0 4 4 4 4 3 6 7 8 7 6 7 6 5 4 3 3 2 2 3 4 5 5 6 6 5 5 5 5 6 7 8 9 9 9 10 10 10 10 10 11 12
7 3 3 1 2 1 1 1 0 1 1 1 1 3 2 3 2 2 2 2 1 1 3 5 4 6 1 2 3 0 1 3 1 2 0 0 1 1 0 1 2 1 1 1 0 3 3 1 3 4 4 6 5 7 7 8 7 7 6 5 3 3 2 2 4 5 6 5 5 5 5 5 6 6 5 6 8 10 9 9 9 10 11 11 11 11 11
4 1 1 1 1 1 1 0 1 1 3 3 2 2 2 4 2 1 2 2 3 3 4 3 4 3 5 2 2 1 1 1 1 1 1 2 1 1 1 2 1 1 1 1 1 2 2 3 4 3 4 7 8 8 8 8 8 6 5 5 4 4 4 4 5 5 6 5 6 5 5 5 6 6 6 6 6 7 9 10 9 10 9 9 10 10 9
2 2 3 2 2 1 2 0 1 3 1 0 1 2 1 3 4 4 4 3 4 4 4 5 4 3 3 0 2 2 0 1 1 1 1 1 1 2 2 0 1 0 1 1 3 4 4 6 6 4 3 7 9 8 8 8 7 6 6 6 6 5 5 5 5 5 6 6 6 5 6 5 6 6 7 6 7 7 7 8 9 10 10 10 11 11 11
2 1 1 1 3 1 1 2 1 1 1 1 2 2 3 4 4 4 3 3 4 4 5 4 4 3 3 1 1 2 1 0 0 1 1 0 1 1 0 1 1 1 2 3 3 3 3 6 5 3 3 7 9 8 8 8 7 7 6 6 6 6 5 5 6 6 6 7 7 6 6 6 6 6 7 7 7 7 8 9 9 9 10 10 10 11 10
3 1 2 2 2 0 4 1 1 2 1 2 2 2 2 0 1 2 4 4 4 4 4 4 3 3 4 2 2 2 1 0 0 1 1 1 0 0 0 0 1 1 0 1 4 4 6 5 4 3 4 6 9 9 8 8 8 8 7 7 7 7 6 6 6 6 6 7 7 6 7 7 6 6 7 7 8 8 8 8 9 9 9 10 10 10 10
1 2 2 2 1 1 0 2 2 3 3 3 1 1 1 1 2 3 5 4 4 4 3 3 2 2 1 1 2 1 1 0 1 1 1 0 0 1 0 1 1 2 1 1 3 5 5 4 3 2 5 7 8 8 8 7 8 8 7 7 7 7 6 6 6 6 6 6 7 7 7 7 7 7 7 7 8 8 7 7 8 8 9 11 11 11 10
2 2 1 2 2 2 1 1 3 2 3 3 2 2 2 1 2 4 5 6 5 4 1 2 2 2 1 1 1 0 0 1 1 0 1 1 1 0 0 2 1 1 2 4 4 5 4 3 3 4 6 7 8 8 8 8 7 7 7 7 7 7 6 7 7 7 6 6 7 8 8 7 7 7 8 8 7 7 7 7 7 7 8 10 10 11 11
1 2 2 2 3 1 2 3 4 4 4 3 1 3 3 3 4 4 6 6 7 4 2 1 1 1 1 1 2 1 1 1 2 1 1 1 0 0 1 1 2 2 4 3 3 3 2 2 3 4 6 7 7 8 7 8 8 8 7 7 7 7 7 7 7 7 7 6 7 8 8 7 6 7 7 7 9 9 8 7 6 6 7 8 9 9 9
1 2 1 1 2 3 3 3 2 2 1 1 1 3 3 2 4 5 6 6 4 3 2 2 2 1 2 1 1 1 0 1 0 0 1 1 0 0 1 1 3 3 2 2 3 2 2 2 2 4 6 7 8 7 8 9 8 8 8 8 7 8 7 7 7 7 6 6 7 8 8 8 8 7 7 8 9 8 7 6 6 7 8 7 9 10 11
Wind_Direction
349 350 350 352 350 352 353 351 352 355 353 345 354 316 12 28 62 55 275 194 258 278 258 59 239 320 36 333 256 274 282 273 311 309 318 319 309 316 310 330 324 52 124 160 151 177 154 167 171 168 184 164 171 161 181 178 175 182 163 170 147 322 185 168 171 164 176 172 166 198 221 198 202 211 218 208 211 205 216 218 194 203 196 195 176 220 112
350 349 351 351 353 353 351 351 352 353 1 354 326 325 54 33 29 83 130 231 299 298 26 6 13 3 15 313 296 247 270 288 299 302 328 316 332 329 312 261 356 356 38 159 139 244 156 204 155 166 180 159 139 162 183 179 181 186 162 168 159 176 185 172 167 171 169 162 182 200 210 214 210 206 209 216 213 207 217 233 233 220 207 204 213 215 165
350 350 349 352 354 354 351 351 352 350 354 358 331 347 352 221 220 351 96 223 312 330 18 321 333 351 334 323 294 295 251 252 270 297 303 311 296 298 295 303 327 338 319 169 194 227 265 156 187 67 163 109 174 165 185 185 180 199 165 185 160 211 174 190 176 174 175 182 187 191 192 200 202 212 206 213 215 201 194 206 185 217 213 209 214 212 92
349 349 347 351 354 356 353 349 351 347 349 353 335 348 282 342 2 96 196 235 252 258 264 280 302 307 328 305 301 285 299 12 266 278 284 283 286 285 297 295 222 168 177 152 99 159 167 204 146 173 147 117 169 172 179 185 180 189 174 192 174 207 178 205 195 196 198 195 188 182 189 188 208 205 212 205 210 210 210 212 225 217 203 215 209 222 135
349 349 348 350 354 356 356 353 351 349 344 351 318 320 313 298 352 350 1 248 234 274 268 274 258 289 349 308 344 319 335 331 327 119 298 18 319 313 261 306 270 142 156 157 144 149 159 119 135 177 145 101 127 172 175 183 184 164 175 192 183 201 185 199 226 207 201 190 189 160 196 197 203 207 210 213 207 213 210 211 219 210 224 226 204 204 169
350 349 349 350 354 356 357 357 354 351 343 343 312 310 342 333 55 273 25 313 329 288 174 257 268 267 282 289 300 305 323 335 344 345 262 323 306 299 123 172 167 58 56 159 147 168 153 128 128 146 137 132 134 147 178 182 179 165 188 188 197 191 190 190 198 199 217 207 181 182 196 204 196 205 206 209 209 208 214 218 222 218 223 229 187 188 197
354 353 351 352 354 356 358 1 356 351 340 333 328 342 37 341 310 262 317 287 306 297 304 292 271 284 270 289 286 301 316 340 12 340 321 315 339 305 19 45 74 86 98 294 139 132 161 112 84 114 154 139 146 154 164 191 176 185 188 188 200 206 197 172 198 187 176 177 176 184 202 203 203 204 208 209 210 213 214 215 216 222 227 237 212 199 217
357 357 359 356 355 356 0 5 0 353 340 326 355 41 336 9 335 342 290 257 275 279 273 260 263 264 237 254 289 307 318 337 359 232 237 330 344 107 243 37 51 77 110 343 101 58 35 49 90 42 73 128 178 148 174 164 191 188 187 186 185 231 163 171 181 187 170 149 180 197 210 205 215 213 213 213 217 219 215 214 214 215 225 226 223 208 210
355 356 357 356 354 1 4 3 3 355 348 3 0 11 22 316 287 291 303 305 279 229 226 245 246 269 241 239 299 296 337 11 341 338 213 259 304 303 352 8 26 68 117 121 66 37 360 359 20 7 0 107 46 226 144 179 172 190 176 185 164 223 147 175 183 195 168 174 189 181 202 212 219 216 217 217 214 216 212 215 211 213 212 215 218 217 211
348 352 354 357 359 2 2 359 0 1 354 7 329 334 354 323 289 286 290 280 308 307 266 245 255 247 257 275 323 313 325 323 347 338 31 324 262 273 338 15 321 108 124 89 46 12 344 345 340 348 343 353 335 23 102 233 183 181 179 177 186 200 182 179 182 201 181 171 193 187 192 208 222 223 214 220 226 230 224 221 218 220 216 217 211 214 189
344 346 349 351 355 358 358 353 355 1 360 13 345 327 345 347 324 316 289 284 287 291 315 293 261 317 318 284 290 288 291 311 313 310 19 56 75 75 54 349 3 29 47 26 356 326 300 301 302 277 298 174 91 132 154 166 216 189 183 177 186 190 203 187 181 206 179 165 181 177 205 213 216 157 292 221 221 217 223 220 213 211 207 227 223 222 219
343 344 345 344 347 352 351 349 351 355 360 346 338 334 341 324 305 285 309 298 303 305 289 287 293 301 299 299 296 293 293 295 293 293 279 285 295 297 303 304 303 3 32 316 317 313 277 253 232 224 227 112 122 152 128 156 190 217 191 184 185 189 196 200 175 204 182 162 158 196 214 216 70 342 58 32 44 20 232 230 223 205 202 198 207 220 213
341 342 342 339 341 345 343 344 348 350 353 348 338 331 332 323 311 316 300 292 298 319 310 299 304 295 290 293 290 288 288 290 283 278 269 272 279 273 268 286 290 346 347 322 324 314 188 182 144 153 133 143 134 108 178 154 181 197 203 200 186 187 197 181 193 214 162 171 195 208 216 85 147 109 108 91 91 174 145 246 214 207 203 199 216 216 215
339 340 339 338 339 340 340 341 342 342 343 348 335 328 316 312 349 314 282 303 300 312 310 295 275 299 323 311 303 297 292 274 275 264 270 252 264 272 271 256 269 306 300 317 297 298 216 190 159 174 144 165 147 158 132 140 207 186 193 203 213 191 195 187 189 220 200 199 199 209 77 177 166 172 195 188 186 183 191 213 222 198 201 201 209 210 203
338 338 337 337 338 336 336 335 338 340 339 341 331 319 324 323 125 270 292 274 298 307 277 264 349 318 313 305 293 296 285 299 281 267 252 261 260 267 275 266 239 261 260 283 261 241 253 183 185 167 163 165 162 167 189 170 105 149 211 221 217 207 203 183 203 185 225 204 200 212 224 242 209 197 137 190 246 193 204 233 254 186 192 195 199 194 173
336 337 337 337 337 336 335 334 333 335 336 337 323 321 301 281 182 190 252 269 314 310 66 341 316 302 302 298 293 284 304 296 284 282 262 231 247 254 226 216 215 207 211 240 274 259 204 206 206 198 190 182 145 133 184 146 176 146 195 201 213 216 219 199 200 174 196 218 219 211 223 223 71 129 139 162 165 173 142 193 234 181 181 182 192 184 171
335 335 336 337 337 335 334 331 332 334 334 335 327 313 308 224 209 195 224 246 219 261 291 299 296 274 288 293 262 241 237 239 283 308 298 312 44 134 98 181 172 200 200 221 208 221 204 207 209 206 193 194 179 171 136 170 160 167 142 202 194 194 203 210 218 200 200 214 217 220 223 202 126 124 148 148 168 155 196 212 233 166 171 174 181 178 165
333 334 335 334 336 334 331 331 333 334 333 332 323 319 301 296 228 128 189 243 280 284 260 257 288 295 259 312 301 312 261 249 251 254 265 278 261 194 132 151 156 186 213 217 195 209 212 202 198 201 194 134 308 167 192 163 183 168 174 174 181 188 196 200 214 214 198 220 224 238 208 106 125 135 141 144 156 181 196 210 66 102 178 173 175 176 170
332 333 334 334 333 332 332 332 332 333 333 330 326 305 287 316 258 166 188 225 228 271 256 254 275 267 268 284 264 275 277 298 305 293 280 258 203 148 154 117 181 163 196 201 206 210 200 202 226 213 208 176 203 208 157 183 187 174 161 175 178 184 187 196 214 217 212 202 232 226 247 79 121 137 143 151 157 192 216 75 291 232 192 192 186 176 170
331 332 333 332 330 331 332 331 330 331 332 331 327 313 300 294 266 198 217 245 234 257 281 268 220 237 217 209 234 225 233 237 236 237 236 251 54 307 156 150 197 173 173 196 206 215 217 203 199 197 222 191 193 263 212 220 233 201 187 187 199 178 189 191 197 214 217 208 223 224 232 153 161 135 149 185 229 48 40 14 98 253 181 186 188 179 168
330 331 330 330 329 330 331 330 330 330 332 331 331 316 312 309 267 234 228 233 234 296 290 238 210 227 235 238 241 251 250 242 206 213 241 267 50 225 189 196 163 178 180 187 201 195 212 203 182 196 250 250 153 203 211 193 202 187 280 198 218 162 216 195 200 196 200 203 217 227 23 123 161 161 187 193 108 65 25 353 75 155 183 174 177 178 176
328 328 329 328 328 328 330 329 330 330 331 333 331 316 297 310 308 287 263 234 231 229 254 293 294 275 256 250 250 239 239 243 244 247 280 287 210 230 328 329 176 190 179 205 226 200 206 233 192 193 199 203 116 217 211 206 209 155 156 182 212 148 244 248 220 175 224 216 203 72 49 131 167 220 20 30 56 43 27 8 29 149 155 172 181 179 175
327 327 327 327 326 326 328 328 328 329 330 332 331 314 304 306 306 306 283 259 242 252 265 267 272 272 263 251 243 237 235 240 252 253 241 251 273 240 256 279 341 4 351 245 312 342 324 245 202 204 201 218 211 202 221 230 229 164 197 196 310 21 310 307 255 190 96 12 85 125 151 171 184 207 0 358 16 58 240 311 1 77 138 169 184 167 173
325 325 325 326 325 324 325 326 327 327 328 328 327 313 306 303 300 303 285 261 269 304 280 210 284 296 264 313 201 205 215 223 227 231 232 229 235 240 14 251 357 333 248 17 3 330 350 301 329 309 229 175 231 221 207 208 236 200 200 179 197 127 118 247 217 164 196 214 139 159 129 174 226 232 230 305 321 33 327 270 302 138 154 164 178 164 136
324 323 324 324 323 323 323 325 325 325 325 327 323 307 298 295 294 305 295 310 315 319 305 288 241 253 311 270 227 183 205 205 197 208 206 211 217 229 14 36 255 281 75 45 277 219 264 284 255 216 231 85 303 233 224 242 199 190 225 177 167 170 180 256 200 166 209 130 110 95 133 233 247 236 216 221 173 151 163 331 102 131 143 154 123 121 134
323 321 321 323 322 321 321 322 323 323 324 326 323 309 302 292 298 289 271 267 255 275 299 315 2 143 268 307 308 274 167 182 187 186 198 204 211 227 275 313 202 69 7 322 334 259 236 233 270 286 268 156 297 268 233 233 4 150 247 98 23 66 154 218 177 205 155 95 172 152 179 208 204 201 220 219 204 163 141 149 149 144 139 124 128 141 139
321 319 319 320 320 319 319 321 321 321 322 324 320 304 291 289 280 255 241 277 304 242 223 275 314 305 347 319 320 296 197 186 179 183 193 204 211 216 230 250 272 310 328 328 298 283 241 256 251 247 246 259 212 240 281 200 210 185 181 97 170 176 194 153 202 210 212 239 174 165 221 214 174 189 186 181 175 196 146 146 139 141 138 152 158 156 154
320 318 318 318 318 319 318 319 319 320 322 322 314 300 290 277 265 244 238 246 308 322 311 297 294 311 312 266 289 318 59 170 175 177 184 197 205 208 224 236 247 262 271 305 244 201 213 215 220 75 43 183 222 208 225 327 249 193 182 116 309 234 89 214 212 234 202 44 70 81 8 80 35 92 135 122 147 170 155 143 139 141 145 158 156 156 158
319 318 317 317 317 317 317 317 319 319 321 322 313 306 263 245 256 230 236 232 268 293 292 282 274 269 338 9 319 334 85 148 159 172 174 183 191 199 215 185 183 219 202 237 269 270 229 149 77 214 222 48 264 173 173 188 194 184 108 92 224 45 0 319 0 328 66 33 58 32 358 19 88 88 97 107 127 163 148 137 136 149 152 158 161 154 152
317 317 316 316 315 314 316 316 316 318 321 318 315 294 249 159 148 181 164 242 246 306 307 328 320 22 341 275 337 20 90 128 149 175 184 177 186 189 193 181 189 195 231 257 292 263 23 2 212 95 83 277 262 227 215 187 175 104 104 144 118 238 245 292 356 351 9 17 40 38 57 93 87 104 94 93 106 163 149 145 144 154 159 167 167 156 144
316 316 316 314 313 313 313 313 313 315 315 296 291 278 282 274 116 98 136 260 246 272 285 267 267 296 288 169 249 341 23 135 164 152 151 157 176 183 182 173 166 169 198 214 195 91 272 231 232 108 255 53 325 237 214 180 139 136 109 90 124 94 32 61 3 357 23 82 73 93 93 90 101 110 100 117 117 125 138 151 142 155 148 165 166 154 147
315 315 314 313 311 310 309 309 310 309 295 265 238 280 9 355 12 31 20 275 260 261 298 303 288 278 333 277 51 344 337 127 166 158 151 167 136 154 157 194 167 201 253 107 323 213 284 51 317 251 229 122 241 254 254 211 126 120 107 119 123 99 73 79 85 84 80 92 123 123 96 89 47 351 118 133 145 151 154 146 153 144 145 157 153 147 142
315 314 313 311 309 308 307 306 304 298 273 278 303 305 291 284 276 257 242 248 245 265 281 284 299 304 272 21 330 35 346 217 173 188 126 223 157 169 156 166 139 154 127 142 176 95 189 231 213 221 103 182 251 223 1 75 86 99 97 105 114 90 90 83 90 75 78 33 353 350 19 116 100 86 105 133 150 154 156 159 152 150 152 147 149 137 133
315 313 311 309 307 307 306 305 301 285 245 241 225 196 153 111 343 183 199 210 269 285 261 278 305 303 315 263 232 61 343 345 50 2 112 129 135 221 165 175 188 164 117 252 109 220 177 235 250 40 180 166 262 248 93 99 101 112 120 117 123 111 117 108 95 83 24 346 333 330 35 82 96 110 133 144 146 149 159 158 157 157 156 152 140 134 130
315 312 310 308 308 306 304 300 237 197 222 210 223 108 34 336 308 241 205 208 238 208 210 215 244 297 337 0 31 42 353 308 18 25 351 95 232 357 174 181 155 223 110 213 187 352 353 29 332 246 97 91 222 68 88 129 128 124 136 136 128 118 136 119 75 43 54 69 83 94 110 116 128 142 145 148 149 158 160 162 163 159 158 148 137 137 139
315 313 309 308 304 302 269 203 224 208 194 101 59 7 340 313 319 181 193 211 275 319 290 28 277 316 337 338 8 22 325 278 19 251 97 279 180 102 312 250 118 77 339 340 11 341 3 4 273 76 169 179 47 46 103 125 132 138 133 135 140 135 110 81 99 99 89 88 88 100 118 146 162 144 147 155 158 161 166 163 163 159 146 136 136 137 136
316 313 308 301 286 188 219 101 96 5 31 330 313 312 299 286 114 114 139 216 213 250 297 318 285 13 352 338 280 347 320 7 344 306 50 1 22 8 328 93 78 80 207 141 53 11 14 325 291 47 31 55 98 85 108 125 134 131 130 133 129 98 123 107 111 112 110 107 115 126 134 144 142 147 153 159 161 161 161 166 164 161 145 135 130 133 135
312 304 302 297 248 236 175 121 59 4 316 291 259 232 184 215 221 168 176 210 135 231 231 241 273 343 222 286 340 22 296 29 332 348 76 34 275 96 9 17 47 271 82 55 51 347 280 17 25 61 86 72 90 113 131 134 112 116 122 126 123 114 116 125 139 132 123 136 151 151 147 159 159 163 162 160 160 162 165 160 161 153 128 125 122 119 115
306 311 297 298 288 315 21 35 6 327 303 230 228 241 199 189 229 219 195 139 176 212 175 245 311 357 312 300 335 76 7 324 309 358 23 46 327 87 339 48 96 275 106 169 100 282 233 110 146 156 107 136 144 122 125 128 124 117 104 95 117 133 144 144 124 8 314 335 161 166 165 172 173 162 159 155 150 146 148 150 147 137 128 126 128 133 131
350 352 349 329 335 5 325 330 330 304 243 223 182 256 248 173 244 260 140 220 196 142 210 235 21 319 321 324 327 8 84 317 351 10 353 88 55 342 28 316 65 281 51 52 48 331 326 61 55 197 115 162 119 131 150 146 139 124 115 120 140 141 133 92 52 340 297 284 166 140 132 150 153 158 159 156 154 152 148 137 126 123 134 138 139 142 141
356 338 320 323 333 320 317 318 307 239 241 210 193 209 255 217 194 347 263 253 219 103 193 314 274 242 161 237 258 300 96 269 284 306 289 358 73 254 291 45 347 300 71 60 49 309 272 58 41 49 48 110 136 155 157 158 146 134 115 129 143 149 132 67 51 67 131 130 128 123 112 131 151 153 152 151 150 147 142 126 126 126 126 129 133 130 115
324 304 293 295 292 289 298 270 237 234 206 265 266 224 202 317 148 214 249 279 89 336 147 308 304 335 339 334 317 313 294 52 290 276 293 28 41 329 32 30 241 319 56 38 331 253 276 41 34 49 74 117 128 153 166 160 152 147 136 136 145 159 161 68 58 84 112 124 121 119 120 132 143 148 145 148 145 135 129 127 123 124 127 126 123 123 131
288 274 284 284 300 266 258 263 165 256 224 181 197 232 208 221 219 270 141 131 97 271 49 215 270 291 237 237 225 207 299 30 295 286 303 6 25 239 315 40 316 65 29 325 274 353 47 39 26 41 88 139 151 160 169 162 156 152 135 128 129 134 133 79 82 94 99 105 109 117 121 130 133 138 140 141 140 139 135 131 132 132 134 135 136 139 142
316 292 244 220 278 237 213 212 123 213 218 248 202 215 186 212 175 180 216 122 37 203 46 334 354 330 338 91 324 92 207 192 220 245 165 170 279 16 331 44 43 49 255 229 325 48 36 43 17 27 110 137 148 167 163 163 161 153 139 125 122 139 142 124 121 124 108 101 101 108 119 123 124 125 128 130 136 133 131 132 135 136 136 137 137 141 142
311 262 241 239 254 161 154 32 204 232 229 189 219 249 203 219 175 203 55 44 309 351 334 306 316 306 293 5 238 211 291 354 168 296 20 320 313 32 353 51 9 275 306 31 45 82 53 40 39 110 147 162 164 167 167 166 165 165 149 144 151 159 162 160 144 131 132 126 124 131 131 131 131 128 129 129 134 134 135 132 130 128 131 128 125 125 128
328 334 323 280 298 265 245 220 135 204 202 273 237 273 236 51 55 82 58 346 321 323 328 334 311 286 279 291 300 21 58 286 283 60 338 271 333 47 40 316 267 316 49 39 47 36 24 25 17 29 130 160 161 159 165 168 168 157 160 161 159 156 159 157 149 142 136 141 139 140 138 140 135 134 132 131 127 127 126 130 138 141 135 135 140 141 143
251 237 269 300 288 197 240 233 170 38 24 56 52 26 39 57 48 46 32 344 319 333 310 295 283 302 312 347 260 191 199 258 331 55 264 297 37 94 193 281 38 14 50 48 41 22 18 21 22 51 128 153 155 157 164 165 167 167 167 151 155 151 153 153 150 150 141 150 147 138 138 138 134 133 132 134 134 133 135 144 151 152 151 147 142 142 142
298 328 298 246 218 226 200 153 35 131 81 43 60 51 66 357 258 64 29 345 316 304 305 308 263 196 216 178 257 337 27 348 259 126 1 48 183 300 6 37 90 99 340 351 33 18 17 15 13 77 143 154 157 158 163 168 170 173 162 157 156 150 154 151 153 146 149 151 148 144 138 138 137 140 146 139 134 139 148 150 149 149 144 143 145 147 149
319 308 275 304 318 300 329 59 235 163 124 107 82 90 127 210 65 36 1 332 318 330 327 288 335 305 265 98 270 226 199 26 307 79 187 227 347 68 310 71 355 77 101 350 17 15 11 23 53 114 141 154 158 162 164 169 170 170 165 162 160 156 155 154 147 141 145 146 150 150 147 144 146 148 145 145 145 141 138 137 145 151 152 151 150 151 154
241 210 216 246 244 208 243 294 259 178 152 156 169 95 11 354 29 49 2 334 332 311 250 221 222 266 341 285 226 122 20 57 343 275 258 80 93 183 263 83 86 28 63 47 30 21 33 65 111 135 150 153 160 165 165 168 167 170 165 163 156 158 155 150 148 150 146 138 147 152 145 147 153 151 154 152 142 135 138 141 139 142 150 152 151 153 156
219 280 277 308 287 19 355 216 198 194 189 175 98 45 1 18 13 9 6 323 316 302 254 326 5 298 261 224 254 220 100 9 263 270 327 55 105 240 77 94 99 64 68 56 39 23 49 100 141 143 151 161 162 168 166 166 169 170 165 165 160 156 150 151 147 145 139 140 142 143 146 149 150 149 141 133 137 141 140 138 142 144 147 151 152 147 150
241 235 226 168 240 271 283 311 307 298 348 29 9 45 343 356 11 353 339 309 312 337 11 347 293 274 246 214 30 357 332 240 297 282 219 141 226 247 90 20 36 54 42 39 70 80 96 117 123 150 160 157 163 167 166 166 168 167 166 163 160 156 152 152 151 149 145 141 145 146 138 138 141 139 136 139 141 145 144 145 153 156 157 160 162 164 169